Hourly Data Report for January 27, 2013

BAGOTVILLE A
QUEBEC

48°20'00.000" N
71°00'00.000" W
159.10 m
7060400
71727
YBG

Download Data

Hourly Data (January 2013)
Hourly Data Report for January 27, 2013
TIME
LST
Temp Definition
°C
Dew Point Definition
°C
Rel Hum Definition
%
Precip. Amount Definition
mm

Wind Dir Definition
10's deg

Wind Spd Definition
km/h
Visibility Definition
km
Stn Press Definition
kPa
Hmdx Definition


Wind Chill Definition


Weather Definition


00:00 -18.0 -22.1 70   28 28 16.1 100.28   -30 Snow
01:00 -18.9 -23.3 68   29 35 6.4 100.33   -32 Snow
02:00 -19.2 -24.5 63   29 32 6.4 100.42   -32 Snow
03:00 -19.3 -24.7 62   30 30 9.7 100.47   -32 Snow
04:00 -19.0 -23.4 68   29 22 9.7 100.55   -30 Snow
05:00 -19.1 -23.5 68   30 28 6.4 100.61   -31 Snow
06:00 -20.2 -24.9 66   29 33 6.4 100.66   -33 Snow
07:00 -20.2 -24.1 71   30 33 12.9 100.73   -33 Snow
08:00 -20.5 -24.4 71   29 28 32.2 100.78   -33 Snow
09:00 -20.0 -23.8 72   29 24 40.2 100.84   -31 Cloudy
10:00 -19.2 -22.8 73   29 30 40.2 100.91   -32 Cloudy
11:00 -18.2 -22.4 70   31 26 40.2 100.93   -29 Mostly Cloudy
12:00 -17.2 -21.9 67   31 26 40.2 100.88   -28 Mainly Clear
13:00 -16.2 -22.0 61   31 20 40.2 100.87   -26 Mainly Clear
14:00 -15.6 -21.2 62   31 22 40.2 100.88   -25 Mainly Clear
15:00 -14.9 -20.9 60   30 20 40.2 100.91   -24 Mainly Clear
16:00 -15.0 -20.3 64   30 15 40.2 100.91   -23 Mainly Clear
17:00 -16.2 -22.8 57   28 7 40.2 100.94   -21 Mainly Clear
18:00 -18.2 -23.2 65   25 11 24.1 100.96   -25 Mainly Clear
19:00 -17.9 -22.0 70   27 9 24.1 101.00   -24 Mainly Clear
20:00 -17.5 -21.5 71   27 11 24.1 101.02   -25 Mainly Clear
21:00 -18.0 -20.7 79   27 11 24.1 101.03   -25 Mainly Clear
22:00 -19.0 -21.9 78   28 6 24.1 100.99   -24 Mainly Clear
23:00 -21.4 -24.6 75   27 4 24.1 100.96   -25 Mainly Clear

Notes on Data Quality.

Legend

  • E = Estimated
  • M = Missing
  • NA = Not Available*
  • [empty] = Indicates an unobserved value
Date modified: